| time (UTC) | temp F | wind direction | speed knots | gust knots | rain 1hr in | rain 24hr in | rain mn in | humidity % | barometer mb |
| 20260503201057 | 64 | 185 | 0.0 | 0.0 | 0.00 | 0.00 | 0.00 | 44 | 1015.3 |
| 20260503200553 | 63 | 190 | 1.7 | 1.7 | 0.00 | 0.00 | 0.00 | 42 | 1015.3 |
| 20260503200050 | 63 | 320 | 1.7 | 2.6 | 0.00 | 0.00 | 0.00 | 41 | 1015.3 |
| 20260503195547 | 63 | 193 | 0.9 | 0.9 | 0.00 | 0.00 | 0.00 | 42 | 1015.2 |
| 20260503195044 | 63 | 57 | 1.7 | 1.7 | 0.00 | 0.00 | 0.00 | 41 | 1015.3 |
| 20260503194541 | 63 | 331 | 1.7 | 1.7 | 0.00 | 0.00 | 0.00 | 43 | 1015.6 |
| 20260503194041 | 62 | 61 | 0.0 | 0.0 | 0.00 | 0.00 | 0.00 | 42 | 1015.6 |
| 20260503193538 | 63 | 358 | 2.6 | 2.6 | 0.00 | 0.00 | 0.00 | 41 | 1015.3 |
| 20260503193033 | 63 | 359 | 0.0 | 0.0 | 0.00 | 0.00 | 0.00 | 41 | 1015.5 |
| 20260503192529 | 63 | 342 | 3.5 | 6.1 | 0.00 | 0.00 | 0.00 | 43 | 1015.6 |
| 20260503192025 | 62 | 22 | 1.7 | 1.7 | 0.00 | 0.00 | 0.00 | 44 | 1015.7 |
| 20260503191522 | 62 | 115 | 0.0 | 0.9 | 0.00 | 0.00 | 0.00 | 45 | 1015.8 |
| 20260503191019 | 62 | 309 | 3.5 | 5.2 | 0.00 | 0.00 | 0.00 | 43 | 1015.9 |
| 20260503190516 | 62 | 11 | 3.5 | 3.5 | 0.00 | 0.00 | 0.00 | 44 | 1015.9 |
| 20260503190013 | 63 | 346 | 0.9 | 0.9 | 0.00 | 0.00 | 0.00 | 43 | 1016.0 |
| 20260503185509 | 63 | 31 | 1.7 | 1.7 | 0.00 | 0.00 | 0.00 | 41 | 1016.1 |
| 20260503185009 | 63 | 194 | 0.9 | 1.7 | 0.00 | 0.00 | 0.00 | 45 | 1016.2 |
| 20260503184506 | 63 | 302 | 0.9 | 0.9 | 0.00 | 0.00 | 0.00 | 45 | 1016.3 |
| 20260503184002 | 63 | 336 | 0.0 | 0.0 | 0.00 | 0.00 | 0.00 | 45 | 1016.3 |
| 20260503183459 | 62 | 182 | 0.9 | 1.7 | 0.00 | 0.00 | 0.00 | 47 | 1016.2 |
| 20260503182955 | 62 | 281 | 1.7 | 2.6 | 0.00 | 0.00 | 0.00 | 44 | 1016.2 |
| 20260503182455 | 62 | 54 | 1.7 | 1.7 | 0.00 | 0.00 | 0.00 | 46 | 1016.2 |
| 20260503181952 | 62 | 328 | 2.6 | 5.2 | 0.00 | 0.00 | 0.00 | 43 | 1016.3 |
| 20260503181449 | 62 | 289 | 2.6 | 3.5 | 0.00 | 0.00 | 0.00 | 44 | 1016.1 |
| 20260503180945 | 62 | 333 | 4.3 | 6.1 | 0.00 | 0.00 | 0.00 | 44 | 1016.2 |
| 20260503180443 | 61 | 38 | 1.7 | 1.7 | 0.00 | 0.00 | 0.00 | 46 | 1016.1 |
| 20260503175940 | 61 | 347 | 3.5 | 3.5 | 0.00 | 0.00 | 0.00 | 42 | 1016.2 |
| 20260503175438 | 61 | 338 | 1.7 | 1.7 | 0.00 | 0.00 | 0.00 | 45 | 1016.4 |
| 20260503174938 | 60 | 16 | 0.9 | 0.9 | 0.00 | 0.00 | 0.00 | 46 | 1016.4 |
| 20260503174437 | 60 | 320 | 4.3 | 5.2 | 0.00 | 0.00 | 0.00 | 46 | 1016.4 |
| 20260503173932 | 60 | 2 | 0.9 | 1.7 | 0.00 | 0.00 | 0.00 | 44 | 1016.4 |
| 20260503173428 | 60 | 34 | 1.7 | 2.6 | 0.00 | 0.00 | 0.00 | 43 | 1016.3 |
| 20260503172925 | 60 | 23 | 1.7 | 1.7 | 0.00 | 0.00 | 0.00 | 44 | 1016.5 |
| 20260503172422 | 60 | 333 | 1.7 | 1.7 | 0.00 | 0.00 | 0.00 | 45 | 1016.3 |
| 20260503171918 | 60 | 23 | 3.5 | 5.2 | 0.00 | 0.00 | 0.00 | 46 | 1016.4 |
| 20260503171415 | 59 | 338 | 1.7 | 2.6 | 0.00 | 0.00 | 0.00 | 47 | 1016.4 |
| 20260503170913 | 59 | 336 | 3.5 | 6.1 | 0.00 | 0.00 | 0.00 | 46 | 1016.7 |
| 20260503170409 | 59 | 337 | 3.5 | 3.5 | 0.00 | 0.00 | 0.00 | 46 | 1016.6 |
| 20260503150801 | 56 | 330 | 4.3 | 5.2 | 0.00 | 0.00 | 0.00 | 47 | 1017.0 |
| 20260503150257 | 56 | 318 | 5.2 | 6.1 | 0.00 | 0.00 | 0.00 | 48 | 1016.9 |
| 20260503140222 | 55 | 335 | 3.5 | 3.5 | 0.00 | 0.00 | 0.00 | 50 | 1016.8 |
| 20260503131151 | 54 | 15 | 1.7 | 2.6 | 0.00 | 0.00 | 0.00 | 54 | 1016.3 |
| 20260503130649 | 54 | 299 | 4.3 | 5.2 | 0.00 | 0.00 | 0.00 | 53 | 1016.6 |
| 20260503130146 | 54 | 36 | 2.6 | 2.6 | 0.00 | 0.00 | 0.00 | 55 | 1016.5 |
| 20260503120112 | 52 | 341 | 2.6 | 2.6 | 0.00 | 0.00 | 0.00 | 59 | 1015.9 |
| 20260503110539 | 50 | 2 | 1.7 | 2.6 | 0.00 | 0.00 | 0.00 | 75 | 1014.9 |
| 20260503090426 | 48 | 323 | 0.0 | 0.0 | 0.00 | 0.00 | 0.00 | 89 | 1013.0 |
| 20260503081352 | 48 | 344 | 0.9 | 0.9 | 0.00 | 0.00 | 0.00 | 87 | 1012.6 |
| 20260503080849 | 48 | 351 | 0.0 | 0.0 | 0.00 | 0.00 | 0.00 | 87 | 1012.5 |
| 20260503080346 | 48 | 1 | 0.0 | 0.0 | 0.00 | 0.00 | 0.00 | 87 | 1012.5 |
| 20260503072823 | 49 | 355 | 0.9 | 0.9 | 0.00 | 0.00 | 0.00 | 86 | 1012.0 |
| 20260503072319 | 48 | 4 | 0.0 | 0.0 | 0.00 | 0.00 | 0.00 | 86 | 1012.0 |
| 20260503071815 | 48 | 336 | 1.7 | 1.7 | 0.00 | 0.00 | 0.00 | 87 | 1012.0 |
| 20260503071313 | 48 | 16 | 0.9 | 0.9 | 0.00 | 0.00 | 0.00 | 87 | 1011.7 |
| 20260503070809 | 49 | 356 | 0.9 | 0.9 | 0.00 | 0.00 | 0.00 | 87 | 1011.8 |
| 20260503070308 | 48 | 348 | 0.9 | 1.7 | 0.00 | 0.00 | 0.00 | 87 | 1011.7 |
| 20260503060238 | 50 | 345 | 0.0 | 0.0 | 0.00 | 0.00 | 0.00 | 88 | 1011.3 |
| 20260503054725 | 51 | 345 | 0.0 | 0.0 | 0.00 | 0.00 | 0.00 | 86 | 1011.1 |
| 20260503054222 | 51 | 346 | 0.0 | 0.0 | 0.00 | 0.00 | 0.00 | 85 | 1011.3 |
| 20260503053720 | 51 | 345 | 0.0 | 0.0 | 0.00 | 0.00 | 0.00 | 84 | 1011.4 |
| 20260503053219 | 51 | 345 | 0.0 | 0.0 | 0.00 | 0.00 | 0.00 | 84 | 1011.5 |
| 20260503052714 | 51 | 346 | 0.0 | 0.0 | 0.00 | 0.00 | 0.00 | 84 | 1011.6 |
| 20260503052211 | 51 | 349 | 0.0 | 0.9 | 0.00 | 0.00 | 0.00 | 83 | 1011.8 |
| 20260503051706 | 52 | 349 | 0.0 | 0.0 | 0.00 | 0.00 | 0.00 | 83 | 1011.5 |
| 20260503051204 | 52 | 349 | 0.0 | 0.0 | 0.00 | 0.00 | 0.00 | 83 | 1011.3 |
| 20260503050701 | 52 | 350 | 0.0 | 0.0 | 0.00 | 0.00 | 0.00 | 82 | 1011.5 |
| 20260503050157 | 52 | 350 | 0.0 | 0.0 | 0.00 | 0.00 | 0.00 | 83 | 1011.5 |
| 20260503045655 | 52 | 350 | 0.0 | 0.0 | 0.00 | 0.00 | 0.00 | 82 | 1011.5 |
| 20260503045152 | 52 | 37 | 0.0 | 0.0 | 0.00 | 0.00 | 0.00 | 83 | 1011.6 |
| 20260503044648 | 52 | 43 | 0.0 | 0.0 | 0.00 | 0.00 | 0.00 | 82 | 1011.5 |
| 20260503044146 | 53 | 56 | 0.9 | 0.9 | 0.00 | 0.00 | 0.00 | 81 | 1011.2 |
| 20260503043642 | 53 | 58 | 0.0 | 0.0 | 0.00 | 0.00 | 0.00 | 81 | 1011.5 |
| 20260503043140 | 53 | 58 | 0.0 | 0.0 | 0.00 | 0.00 | 0.00 | 79 | 1011.8 |
| 20260503042636 | 53 | 58 | 0.9 | 0.9 | 0.00 | 0.00 | 0.00 | 78 | 1011.5 |
| 20260503042132 | 53 | 353 | 2.6 | 2.6 | 0.00 | 0.00 | 0.00 | 78 | 1011.4 |
| 20260503041629 | 53 | 343 | 0.9 | 0.9 | 0.00 | 0.00 | 0.00 | 79 | 1011.6 |
| 20260503041127 | 53 | 357 | 0.9 | 0.9 | 0.00 | 0.00 | 0.00 | 79 | 1011.5 |
| 20260503040624 | 53 | 357 | 0.9 | 1.7 | 0.00 | 0.00 | 0.00 | 79 | 1011.4 |
| 20260503040121 | 53 | 358 | 0.0 | 0.0 | 0.00 | 0.00 | 0.00 | 80 | 1011.4 |
| 20260503035617 | 53 | 7 | 0.9 | 0.9 | 0.00 | 0.19 | 0.19 | 79 | 1011.5 |
| 20260503035115 | 53 | 12 | 0.0 | 0.0 | 0.00 | 0.19 | 0.19 | 81 | 1011.5 |
| 20260503034612 | 53 | 14 | 0.0 | 0.0 | 0.00 | 0.19 | 0.19 | 81 | 1011.2 |
| 20260503034110 | 53 | 14 | 0.0 | 0.0 | 0.00 | 0.19 | 0.19 | 81 | 1011.5 |
| 20260503033607 | 53 | 14 | 0.9 | 0.9 | 0.00 | 0.19 | 0.19 | 81 | 1011.5 |
| 20260503033104 | 53 | 14 | 0.0 | 0.0 | 0.00 | 0.19 | 0.19 | 80 | 1011.5 |
| 20260503032603 | 52 | 347 | 0.9 | 0.9 | 0.00 | 0.19 | 0.19 | 80 | 1011.5 |
| 20260503032100 | 52 | 25 | 1.7 | 1.7 | 0.00 | 0.19 | 0.19 | 80 | 1011.4 |
| 20260503031558 | 52 | 26 | 0.9 | 0.9 | 0.00 | 0.19 | 0.19 | 80 | 1011.3 |
| 20260503031055 | 52 | 26 | 0.0 | 0.0 | 0.00 | 0.19 | 0.19 | 80 | 1011.6 |
| 20260503030551 | 53 | 26 | 0.0 | 0.0 | 0.00 | 0.19 | 0.19 | 80 | 1011.4 |
| 20260503030048 | 53 | 26 | 0.0 | 0.0 | 0.00 | 0.19 | 0.19 | 79 | 1011.2 |
| 20260503025545 | 52 | 22 | 0.0 | 0.0 | 0.00 | 0.19 | 0.19 | 79 | 1011.4 |
| 20260503025043 | 53 | 16 | 0.0 | 0.0 | 0.00 | 0.19 | 0.19 | 79 | 1011.4 |
| 20260503024538 | 53 | 350 | 0.0 | 0.0 | 0.00 | 0.19 | 0.19 | 79 | 1011.5 |
| 20260503024036 | 53 | 350 | 0.0 | 0.0 | 0.00 | 0.19 | 0.19 | 79 | 1011.5 |
| 20260503023533 | 53 | 350 | 0.0 | 0.0 | 0.00 | 0.19 | 0.19 | 79 | 1011.7 |
| 20260503023030 | 53 | 350 | 0.0 | 0.0 | 0.00 | 0.19 | 0.19 | 80 | 1011.5 |
| 20260503022526 | 53 | 350 | 0.0 | 0.0 | 0.00 | 0.19 | 0.19 | 80 | 1011.6 |
| 20260503022021 | 53 | 350 | 0.9 | 0.9 | 0.00 | 0.19 | 0.19 | 80 | 1011.5 |
| 20260503021518 | 53 | 350 | 0.0 | 0.0 | 0.00 | 0.19 | 0.19 | 79 | 1011.7 |
| 20260503021015 | 52 | 350 | 0.0 | 0.0 | 0.00 | 0.19 | 0.19 | 80 | 1011.8 |
| 20260503020512 | 52 | 350 | 0.0 | 0.9 | 0.00 | 0.19 | 0.19 | 82 | 1011.7 |
| 20260503020009 | 52 | 350 | 0.0 | 0.0 | 0.00 | 0.19 | 0.19 | 81 | 1011.6 |
| 20260503015505 | 52 | 350 | 0.0 | 0.0 | 0.00 | 0.19 | 0.19 | 84 | 1011.4 |
| 20260503015002 | 52 | 350 | 0.0 | 0.0 | 0.00 | 0.19 | 0.19 | 83 | 1011.5 |
| 20260503014458 | 52 | 350 | 0.0 | 0.0 | 0.00 | 0.19 | 0.19 | 81 | 1011.3 |
| 20260503013957 | 52 | 350 | 0.0 | 0.0 | 0.00 | 0.19 | 0.19 | 80 | 1011.2 |
| 20260503013453 | 52 | 350 | 0.0 | 0.0 | 0.00 | 0.19 | 0.19 | 80 | 1011.2 |
| 20260503012950 | 52 | 350 | 0.0 | 0.0 | 0.00 | 0.19 | 0.19 | 81 | 1011.5 |
| 20260503012449 | 52 | 350 | 0.0 | 0.0 | 0.00 | 0.19 | 0.19 | 80 | 1011.3 |
| 20260503011944 | 52 | 350 | 0.0 | 0.0 | 0.00 | 0.19 | 0.19 | 81 | 1011.2 |
| 20260503011441 | 52 | 350 | 0.0 | 0.0 | 0.00 | 0.19 | 0.19 | 79 | 1011.2 |
| 20260503010939 | 52 | 350 | 0.0 | 0.0 | 0.00 | 0.19 | 0.19 | 79 | 1011.2 |
| 20260503010435 | 52 | 350 | 0.0 | 0.0 | 0.00 | 0.19 | 0.19 | 80 | 1011.3 |
| 20260503005932 | 52 | 74 | 0.9 | 0.9 | 0.00 | 0.19 | 0.19 | 80 | 1011.0 |
| 20260503005430 | 52 | 75 | 0.0 | 0.0 | 0.00 | 0.19 | 0.19 | 78 | 1011.0 |
| 20260503004926 | 53 | 75 | 0.0 | 0.0 | 0.00 | 0.19 | 0.19 | 78 | 1010.9 |
| 20260503004423 | 53 | 75 | 0.0 | 0.0 | 0.00 | 0.19 | 0.19 | 77 | 1011.1 |
| 20260503003921 | 53 | 75 | 0.0 | 0.0 | 0.00 | 0.19 | 0.19 | 76 | 1010.9 |
| 20260503003417 | 53 | 75 | 0.0 | 0.0 | 0.00 | 0.19 | 0.19 | 76 | 1011.1 |
| 20260503002915 | 53 | 75 | 0.0 | 0.0 | 0.00 | 0.19 | 0.19 | 75 | 1011.0 |
| 20260503002412 | 53 | 20 | 0.0 | 0.0 | 0.00 | 0.19 | 0.19 | 75 | 1010.9 |
| 20260503001908 | 53 | 20 | 0.0 | 0.0 | 0.00 | 0.19 | 0.19 | 74 | 1010.7 |
| 20260503001404 | 53 | 29 | 0.9 | 0.9 | 0.00 | 0.19 | 0.19 | 74 | 1010.8 |
| 20260503000902 | 53 | 2 | 0.9 | 0.9 | 0.00 | 0.19 | 0.19 | 75 | 1010.5 |
| 20260503000400 | 53 | 343 | 2.6 | 2.6 | 0.00 | 0.19 | 0.19 | 74 | 1010.7 |
| 20260502235856 | 53 | 351 | 0.9 | 0.9 | 0.00 | 0.19 | 0.19 | 75 | 1010.4 |
| 20260502235353 | 53 | 13 | 0.0 | 0.0 | 0.00 | 0.19 | 0.19 | 76 | 1010.5 |
| 20260502234850 | 53 | 6 | 0.9 | 0.9 | 0.00 | 0.19 | 0.19 | 75 | 1010.4 |
| 20260502234347 | 54 | 31 | 0.9 | 0.9 | 0.00 | 0.19 | 0.19 | 75 | 1010.2 |
| 20260502233844 | 54 | 322 | 1.7 | 2.6 | 0.00 | 0.19 | 0.19 | 75 | 1010.2 |
| 20260502233340 | 54 | 298 | 1.7 | 1.7 | 0.00 | 0.19 | 0.19 | 76 | 1010.2 |
| 20260502232837 | 54 | 87 | 0.9 | 0.9 | 0.00 | 0.19 | 0.19 | 75 | 1010.1 |
| 20260502232333 | 54 | 6 | 1.7 | 1.7 | 0.00 | 0.19 | 0.19 | 76 | 1010.1 |
| 20260502231830 | 54 | 47 | 2.6 | 2.6 | 0.00 | 0.19 | 0.19 | 76 | 1010.1 |
| 20260502231328 | 54 | 61 | 0.0 | 0.0 | 0.00 | 0.19 | 0.19 | 76 | 1010.1 |
| 20260502230826 | 54 | 328 | 0.9 | 0.9 | 0.00 | 0.19 | 0.19 | 77 | 1010.3 |
| 20260502230323 | 54 | 306 | 1.7 | 1.7 | 0.00 | 0.19 | 0.19 | 77 | 1010.4 |
| 20260502225820 | 54 | 58 | 0.0 | 0.0 | 0.00 | 0.19 | 0.19 | 77 | 1010.2 |
| 20260502225317 | 54 | 42 | 0.9 | 0.9 | 0.00 | 0.19 | 0.19 | 77 | 1010.3 |
| 20260502224813 | 54 | 70 | 0.9 | 1.7 | 0.00 | 0.19 | 0.19 | 76 | 1010.2 |
| 20260502224309 | 55 | 347 | 0.9 | 0.9 | 0.00 | 0.19 | 0.19 | 76 | 1010.1 |
| 20260502223808 | 55 | 33 | 0.9 | 0.9 | 0.00 | 0.19 | 0.19 | 76 | 1010.1 |
| 20260502223305 | 55 | 17 | 0.9 | 0.9 | 0.00 | 0.19 | 0.19 | 76 | 1010.2 |
| 20260502222803 | 55 | 26 | 0.9 | 1.7 | 0.00 | 0.19 | 0.19 | 76 | 1010.6 |
| 20260502222300 | 55 | 0 | 0.0 | 0.9 | 0.00 | 0.19 | 0.19 | 75 | 1010.5 |
| 20260502221755 | 55 | 345 | 2.6 | 2.6 | 0.00 | 0.19 | 0.19 | 74 | 1010.5 |
| 20260502221252 | 55 | 94 | 0.9 | 0.9 | 0.00 | 0.19 | 0.19 | 73 | 1010.8 |
| 20260502220749 | 55 | 10 | 1.7 | 1.7 | 0.00 | 0.19 | 0.19 | 73 | 1010.6 |
| 20260502220244 | 55 | 50 | 0.0 | 0.9 | 0.00 | 0.19 | 0.19 | 71 | 1010.4 |
| 20260502215741 | 56 | 91 | 0.9 | 0.9 | 0.00 | 0.19 | 0.19 | 77 | 1010.5 |
| 20260502215239 | 56 | 40 | 0.9 | 1.7 | 0.00 | 0.19 | 0.19 | 76 | 1010.6 |
| 20260502214736 | 56 | 64 | 0.9 | 0.9 | 0.00 | 0.19 | 0.19 | 77 | 1010.4 |
| 20260502214234 | 56 | 340 | 1.7 | 2.6 | 0.00 | 0.19 | 0.19 | 78 | 1010.6 |
| 20260502213730 | 56 | 334 | 0.0 | 0.0 | 0.00 | 0.19 | 0.19 | 78 | 1010.3 |
| 20260502213227 | 56 | 31 | 0.0 | 0.0 | 0.00 | 0.19 | 0.19 | 81 | 1010.2 |
| 20260502212726 | 56 | 68 | 0.0 | 0.0 | 0.00 | 0.19 | 0.19 | 82 | 1010.0 |
| 20260502212224 | 56 | 118 | 1.7 | 1.7 | 0.00 | 0.19 | 0.19 | 81 | 1010.1 |
| 20260502211720 | 56 | 71 | 0.9 | 0.9 | 0.00 | 0.19 | 0.19 | 81 | 1010.0 |
| 20260502211217 | 56 | 334 | 1.7 | 2.6 | 0.00 | 0.19 | 0.19 | 81 | 1010.0 |
| 20260502210714 | 56 | 86 | 0.0 | 0.9 | 0.00 | 0.19 | 0.19 | 82 | 1009.9 |
| 20260502210211 | 56 | 48 | 0.9 | 0.9 | 0.00 | 0.19 | 0.19 | 84 | 1009.7 |
| 20260502205708 | 56 | 91 | 0.0 | 0.0 | 0.00 | 0.19 | 0.19 | 85 | 1010.1 |
| 20260502205204 | 55 | 42 | 1.7 | 2.6 | 0.00 | 0.19 | 0.19 | 85 | 1010.2 |
| 20260502204701 | 55 | 44 | 0.0 | 0.0 | 0.00 | 0.19 | 0.19 | 87 | 1010.1 |
| 20260502204159 | 55 | 69 | 0.0 | 0.0 | 0.00 | 0.19 | 0.19 | 84 | 1010.0 |
| 20260502203656 | 55 | 354 | 0.9 | 0.9 | 0.00 | 0.19 | 0.19 | 85 | 1010.3 |
| 20260502203154 | 55 | 88 | 0.9 | 2.6 | 0.00 | 0.19 | 0.19 | 83 | 1009.9 |
| 20260502202648 | 55 | 88 | 0.0 | 0.0 | 0.00 | 0.19 | 0.19 | 82 | 1010.0 |
| 20260502202147 | 55 | 304 | 2.6 | 2.6 | 0.00 | 0.19 | 0.19 | 84 | 1010.0 |
| 20260502201643 | 55 | 346 | 3.5 | 5.2 | 0.00 | 0.19 | 0.19 | 84 | 1009.8 |